PDT,Max TemperatureF,Mean TemperatureF,Min TemperatureF,Max Dew PointF,MeanDew PointF,Min DewpointF,Max Humidity, Mean Humidity, Min Humidity, Max Sea Level PressureIn, Mean Sea Level PressureIn, Min Sea Level PressureIn, Max VisibilityMiles, Mean VisibilityMiles, Min VisibilityMiles, Max Wind SpeedMPH, Mean Wind SpeedMPH, Max Gust SpeedMPH,PrecipitationIn, CloudCover, Events, WindDirDegrees
2013-4-1,67,57,46,43,40,36,80,57,34,30.12,30.05,30.00,10,10,10,28,14,36,0.00,0,,245
2013-4-2,76,61,45,41,36,28,83,51,19,30.09,30.04,29.96,10,10,10,26,9,31,0.00,0,,260
2013-4-3,83,64,45,36,32,29,62,39,15,30.09,30.03,29.97,10,10,10,20,6,16,0.00,0,,226
2013-4-4,77,67,56,47,36,24,60,39,18,30.03,29.99,29.94,10,10,10,26,12,31,0.00,1,,237
2013-4-5,72,63,54,47,41,32,77,53,29,30.04,30.00,29.95,10,10,9,39,20,45,0.00,0,,281
2013-4-6,73,63,53,43,38,32,66,46,25,30.07,29.99,29.94,10,10,10,40,22,46,0.00,0,,283
2013-4-7,74,64,53,44,37,29,71,46,20,29.98,29.89,29.77,10,10,9,38,22,45,0.00,0,,291
2013-4-8,58,52,46,43,31,25,68,54,39,29.83,29.71,29.63,10,3,0,48,30,56,0.00,4,Rain,289
2013-4-9,70,56,41,30,21,5,53,31,8,30.07,29.93,29.84,10,10,10,30,12,33,0.00,0,,302
2013-4-10,77,58,38,26,17,9,43,26,8,30.17,30.07,29.99,10,10,10,26,8,32,0.00,0,,257
2013-4-11,80,68,56,40,35,27,47,32,17,29.97,29.83,29.71,10,10,10,29,12,33,0.00,0,,257
2013-4-12,84,66,48,41,35,22,66,38,10,29.85,29.79,29.73,10,10,10,24,6,29,0.00,0,,240
2013-4-13,81,68,55,44,37,27,55,35,15,29.82,29.76,29.70,10,10,10,29,17,33,0.00,0,,238
2013-4-14,76,64,51,45,41,32,77,49,21,29.76,29.72,29.68,10,10,6,39,19,44,0.00,0,,242
2013-4-15,64,56,47,45,41,37,77,58,39,29.82,29.76,29.71,10,10,10,32,21,39,0.00,3,,250
2013-4-16,57,49,40,40,24,19,76,50,24,30.00,29.89,29.78,10,10,10,36,20,43,0.00,3,,293
2013-4-17,64,52,40,22,15,6,45,28,11,30.19,30.09,30.02,10,10,10,21,9,28,0.00,0,,319
2013-4-18,69,53,37,18,8,1,38,23,7,30.29,30.23,30.18,10,10,10,22,8,30,0.00,0,,63
2013-4-19,80,59,38,27,14,6,34,21,7,30.24,30.13,30.00,10,10,10,30,8,36,0.00,0,,262
2013-4-20,84,67,50,35,26,17,35,22,9,30.03,29.97,29.90,10,10,10,26,7,31,0.00,0,,320
2013-4-21,88,69,50,32,25,13,41,24,7,30.00,29.94,29.88,10,10,10,26,9,30,0.00,0,,246
2013-4-22,87,73,59,42,31,20,37,24,11,29.93,29.85,29.79,10,10,10,25,13,29,0.00,0,,232
2013-4-23,81,67,53,40,24,13,54,31,8,29.95,29.88,29.80,10,10,10,26,10,37,0.00,0,,108
2013-4-24,84,68,51,45,35,17,71,40,9,29.89,29.82,29.75,10,10,10,29,12,35,T,1,,218
2013-4-25,76,64,51,45,40,36,77,50,23,30.04,29.94,29.83,10,10,9,26,15,33,0.00,0,,225
2013-4-26,87,70,52,41,34,17,64,36,8,30.12,30.08,30.02,10,10,10,21,8,23,0.00,0,,220
2013-4-27,90,70,50,39,29,12,47,27,6,30.15,30.07,29.99,10,10,10,25,8,30,0.00,0,,224
2013-4-28,93,75,57,36,29,17,33,20,7,30.03,29.91,29.81,10,10,10,23,9,28,0.00,0,,226
2013-4-29,92,74,56,41,25,10,36,21,5,29.85,29.78,29.71,10,10,10,24,11,30,0.00,0,,229
2013-4-30,86,74,61,48,39,32,60,38,15,29.83,29.71,29.67,10,10,10,26,18,37,0.00,0,,235